#�ϑ�����,���ϕ���,���ϕ���,�ő啗��,�ő啗����������,�ő�u�ԕ���,�ő�u�ԕ�����������
#(�N����),(m/s)   ,(16����),(m/s)   ,(16����)        ,(m/s)       ,(16����)            
2015/7/20 0:01,2.7,3,2.7,3,4.4,5
2015/7/20 0:02,2.6,3,2.7,3,2.7,1
2015/7/20 0:03,2.5,3,2.6,3,2.5,4
2015/7/20 0:04,2.3,3,2.5,3,2.1,2
2015/7/20 0:05,2.3,3,2.3,3,3.1,4
2015/7/20 0:06,2.3,3,2.3,3,3.5,4
2015/7/20 0:07,2.4,3,2.4,3,3.7,2
2015/7/20 0:08,2.3,3,2.4,3,5.1,4
2015/7/20 0:09,2.3,3,2.3,3,4.3,4
2015/7/20 0:10,2.3,3,2.3,3,3.9,3
2015/7/20 0:11,2.3,3,2.4,3,3.3,3
2015/7/20 0:12,2.3,3,2.3,3,3.2,3
2015/7/20 0:13,2.5,3,2.5,3,5.4,4
2015/7/20 0:14,2.8,3,2.8,3,4.7,3
2015/7/20 0:15,2.8,3,2.8,3,4.2,4
2015/7/20 0:16,2.8,3,2.9,3,3,2
2015/7/20 0:17,2.7,3,2.8,3,3.3,3
2015/7/20 0:18,2.6,3,2.7,3,2.6,2
2015/7/20 0:19,2.6,3,2.6,3,4.7,3
2015/7/20 0:20,2.6,3,2.6,3,4.9,4
2015/7/20 0:21,2.6,3,2.6,3,4.9,4
2015/7/20 0:22,2.6,3,2.6,3,2.5,3
2015/7/20 0:23,2.4,3,2.6,3,3.5,4
2015/7/20 0:24,2.2,3,2.4,3,2.4,5
2015/7/20 0:25,2.1,3,2.2,3,1.6,16
2015/7/20 0:26,2.1,3,2.1,3,2.9,3
2015/7/20 0:27,2.1,3,2.1,3,3.2,2
2015/7/20 0:28,2.1,3,2.1,3,3.8,3
2015/7/20 0:29,2.1,3,2.2,3,4.4,3
2015/7/20 0:30,2.1,3,2.2,3,4.9,3
2015/7/20 0:31,2.1,2,2.1,3,3,2
2015/7/20 0:32,2.2,2,2.2,3,3.7,3
2015/7/20 0:33,2.1,2,2.2,3,3,3
2015/7/20 0:34,2.2,2,2.2,3,3.7,3
2015/7/20 0:35,2.3,2,2.3,2,3.5,1
2015/7/20 0:36,2.4,2,2.4,2,3.7,3
2015/7/20 0:37,2.5,3,2.5,3,4.4,3
2015/7/20 0:38,2.5,3,2.5,3,3.7,2
2015/7/20 0:39,2.4,3,2.5,3,2.9,3
2015/7/20 0:40,2.3,3,2.4,3,4.1,3
2015/7/20 0:41,2.4,3,2.4,3,4.1,3
2015/7/20 0:42,2.4,3,2.4,3,3.9,3
2015/7/20 0:43,2.5,3,2.5,3,3.8,3
2015/7/20 0:44,2.5,3,2.5,3,4.8,4
2015/7/20 0:45,2.6,3,2.6,3,3.1,3
2015/7/20 0:46,2.5,3,2.6,3,3.1,3
2015/7/20 0:47,2.4,3,2.5,3,2.7,4
2015/7/20 0:48,2.4,3,2.4,3,3.2,3
2015/7/20 0:49,2.4,3,2.4,3,3,4
2015/7/20 0:50,2.3,3,2.4,3,3.2,3
2015/7/20 0:51,2.4,3,2.4,3,4.4,3
2015/7/20 0:52,2.3,3,2.3,3,3.8,4
2015/7/20 0:53,2.2,3,2.3,3,2.7,4
2015/7/20 0:54,2.1,3,2.2,3,2.5,3
2015/7/20 0:55,2.1,3,2.1,3,2.4,4
2015/7/20 0:56,2,3,2.1,3,1.6,3
2015/7/20 0:57,2,3,2,3,2.7,3
2015/7/20 0:58,2,3,2,3,3.5,3
2015/7/20 0:59,1.9,3,2,3,2.5,5
2015/7/20 1:00,2,3,2,3,4.1,3
2015/7/20 1:01,2,3,2,3,3.5,3
2015/7/20 1:02,2,3,2,3,3.1,3
2015/7/20 1:03,2.1,3,2.1,3,4.5,4
2015/7/20 1:04,2.2,3,2.2,3,5,3
2015/7/20 1:05,2.4,3,2.4,3,4.3,3
2015/7/20 1:06,2.6,3,2.6,3,4.9,4
2015/7/20 1:07,2.7,3,2.7,3,4.7,3
2015/7/20 1:08,2.8,3,2.8,3,4.5,3
2015/7/20 1:09,2.9,3,2.9,3,3.7,4
2015/7/20 1:10,2.9,3,2.9,3,3.3,4
2015/7/20 1:11,2.9,3,2.9,3,4.3,2
2015/7/20 1:12,2.9,3,2.9,3,2.7,3
2015/7/20 1:13,2.7,3,2.8,3,3.5,1
2015/7/20 1:14,2.6,3,2.7,3,4.4,3
2015/7/20 1:15,2.6,3,2.6,3,4.7,3
2015/7/20 1:16,2.5,3,2.6,3,3,4
2015/7/20 1:17,2.4,3,2.5,3,2.4,4
2015/7/20 1:18,2.2,3,2.4,3,2.7,16
2015/7/20 1:19,2.2,3,2.2,3,4.4,3
2015/7/20 1:20,2.2,3,2.3,3,4.5,3
2015/7/20 1:21,2.3,3,2.3,3,3.7,3
2015/7/20 1:22,2.3,3,2.3,3,3.9,3
2015/7/20 1:23,2.4,3,2.4,3,3.6,3
2015/7/20 1:24,2.4,3,2.4,3,3.5,2
2015/7/20 1:25,2.3,3,2.4,3,3.3,3
2015/7/20 1:26,2.2,3,2.3,3,3.1,3
2015/7/20 1:27,2.3,3,2.3,3,4.9,2
2015/7/20 1:28,2.5,3,2.5,3,3.8,3
2015/7/20 1:29,2.6,3,2.6,3,3.9,3
2015/7/20 1:30,2.6,3,2.6,3,3.8,3
2015/7/20 1:31,2.6,3,2.6,3,3.2,3
2015/7/20 1:32,2.5,2,2.5,3,2.9,2
2015/7/20 1:33,2.4,3,2.5,3,3.7,2
2015/7/20 1:34,2.5,3,2.5,3,4.1,3
2015/7/20 1:35,2.6,3,2.6,3,4.4,2
2015/7/20 1:36,2.6,2,2.6,3,3.5,2
2015/7/20 1:37,2.6,2,2.7,2,3.9,3
2015/7/20 1:38,2.6,2,2.6,2,4.2,3
2015/7/20 1:39,2.4,2,2.6,2,2.5,4
2015/7/20 1:40,2.2,2,2.4,2,3.5,2
2015/7/20 1:41,2.3,2,2.3,2,5.7,3
2015/7/20 1:42,2.5,2,2.5,2,5.5,3
2015/7/20 1:43,2.6,2,2.6,2,3.5,3
2015/7/20 1:44,2.6,2,2.6,2,4.7,3
2015/7/20 1:45,2.5,2,2.6,2,3.1,3
2015/7/20 1:46,2.5,2,2.5,2,3.6,1
2015/7/20 1:47,2.5,3,2.5,2,3.7,3
2015/7/20 1:48,2.4,3,2.5,2,3.8,2
2015/7/20 1:49,2.6,3,2.6,2,4.1,3
2015/7/20 1:50,2.6,3,2.7,3,3.8,3
2015/7/20 1:51,2.4,2,2.6,3,3.5,2
2015/7/20 1:52,2.4,2,2.4,3,4.4,3
2015/7/20 1:53,2.4,2,2.4,3,3.5,3
2015/7/20 1:54,2.4,2,2.4,3,4.1,4
2015/7/20 1:55,2.5,3,2.5,3,4.3,4
2015/7/20 1:56,2.5,3,2.6,3,3.2,3
2015/7/20 1:57,2.5,3,2.5,3,4.4,4
2015/7/20 1:58,2.6,3,2.6,3,4.1,4
2015/7/20 1:59,2.6,3,2.6,3,4.1,3
2015/7/20 2:00,2.6,3,2.6,3,3,3
2015/7/20 2:01,2.7,3,2.7,3,3.9,4
2015/7/20 2:02,2.5,3,2.6,3,4.8,3
2015/7/20 2:03,2.5,3,2.5,3,4.7,3
2015/7/20 2:04,2.4,3,2.5,3,3.8,3
2015/7/20 2:05,2.4,3,2.5,3,4.2,3
2015/7/20 2:06,2.4,3,2.4,3,2.7,3
2015/7/20 2:07,2.4,3,2.5,3,3.9,3
2015/7/20 2:08,2.3,3,2.4,3,3.1,3
2015/7/20 2:09,2.3,3,2.3,3,4.9,3
2015/7/20 2:10,2.3,3,2.4,3,4.2,3
2015/7/20 2:11,2.3,3,2.3,3,2.9,3
2015/7/20 2:12,2.4,3,2.4,3,3.3,4
2015/7/20 2:13,2.3,3,2.4,3,2.5,3
2015/7/20 2:14,2.3,3,2.3,3,4.2,3
2015/7/20 2:15,2.3,3,2.3,3,3.1,4
2015/7/20 2:16,2.2,3,2.3,3,2.9,2
2015/7/20 2:17,2.2,3,2.2,3,3.6,3
2015/7/20 2:18,2.2,3,2.2,3,3.2,2
2015/7/20 2:19,2.1,3,2.2,3,4.3,3
2015/7/20 2:20,2.1,3,2.2,3,3,2
2015/7/20 2:21,2.1,3,2.1,3,3.7,3
2015/7/20 2:22,2.1,3,2.1,3,4.3,3
2015/7/20 2:23,2.1,3,2.1,3,3.5,4
2015/7/20 2:24,2.1,3,2.2,3,3.7,4
2015/7/20 2:25,2,2,2.1,3,2.6,3
2015/7/20 2:26,2.1,3,2.1,3,4.4,3
2015/7/20 2:27,2.2,3,2.2,3,3.6,3
2015/7/20 2:28,2.2,3,2.2,3,3.1,4
2015/7/20 2:29,2.2,3,2.2,3,2.6,4
2015/7/20 2:30,2.2,3,2.2,3,3.1,3
2015/7/20 2:31,2.2,3,2.2,3,2.7,4
2015/7/20 2:32,2.1,3,2.2,3,3,3
2015/7/20 2:33,2.2,3,2.2,3,3.5,5
2015/7/20 2:34,2.2,3,2.2,3,2.5,2
2015/7/20 2:35,2.2,3,2.2,3,2.7,3
2015/7/20 2:36,2.2,3,2.3,3,3.1,4
2015/7/20 2:37,2.1,3,2.2,3,2.7,3
2015/7/20 2:38,2.1,3,2.1,3,2.9,3
2015/7/20 2:39,2,3,2.1,3,2.6,4
2015/7/20 2:40,2,3,2,3,4.4,2
2015/7/20 2:41,2,3,2,3,4.4,3
2015/7/20 2:42,2.1,3,2.1,3,2.7,3
2015/7/20 2:43,2,3,2.1,3,3,4
2015/7/20 2:44,2,3,2,3,3.7,3
2015/7/20 2:45,2,3,2,3,3.2,3
2015/7/20 2:46,2,3,2,3,3,3
2015/7/20 2:47,2,3,2,3,3,3
2015/7/20 2:48,2.1,3,2.1,3,3.9,4
2015/7/20 2:49,2.2,3,2.2,3,4.5,4
2015/7/20 2:50,2.3,3,2.3,3,5,3
2015/7/20 2:51,2.3,3,2.3,3,3.7,4
2015/7/20 2:52,2.3,3,2.3,3,2.2,3
2015/7/20 2:53,2.2,3,2.3,3,1.8,2
2015/7/20 2:54,2.2,3,2.2,3,3,2
2015/7/20 2:55,2.2,3,2.2,3,2.7,3
2015/7/20 2:56,2.1,3,2.2,3,2.4,1
2015/7/20 2:57,2.2,3,2.2,3,3.5,3
2015/7/20 2:58,2,3,2.2,3,2,2
2015/7/20 2:59,1.9,2,2,3,2.6,2
2015/7/20 3:00,1.8,2,1.9,3,3.1,2
2015/7/20 3:01,1.7,2,1.8,3,2.7,3
2015/7/20 3:02,1.8,2,1.8,3,3.5,3
2015/7/20 3:03,1.9,3,1.9,3,2.4,3
2015/7/20 3:04,1.9,3,1.9,3,2.4,2
2015/7/20 3:05,1.9,3,1.9,3,3.7,3
2015/7/20 3:06,2,3,2,3,3.8,4
2015/7/20 3:07,2,3,2,3,3.1,1
2015/7/20 3:08,2.1,3,2.1,3,2.6,4
2015/7/20 3:09,2.1,3,2.1,3,3.5,4
2015/7/20 3:10,2.1,3,2.1,3,3,3
2015/7/20 3:11,2.1,3,2.1,3,3.5,3
2015/7/20 3:12,2,2,2.1,3,2.5,1
2015/7/20 3:13,2,2,2,3,3.7,2
2015/7/20 3:14,2.2,2,2.2,2,3.8,2
2015/7/20 3:15,2.2,2,2.2,2,3.8,3
2015/7/20 3:16,2.2,2,2.2,2,3.5,3
2015/7/20 3:17,2.1,2,2.2,2,3.2,3
2015/7/20 3:18,2.1,2,2.1,2,2.5,3
2015/7/20 3:19,2.1,2,2.1,2,2.5,4
2015/7/20 3:20,2.1,2,2.1,2,3,3
2015/7/20 3:21,2.2,2,2.2,2,4.1,3
2015/7/20 3:22,2.4,3,2.4,3,4.1,3
2015/7/20 3:23,2.4,3,2.4,3,3.8,3
2015/7/20 3:24,2.3,3,2.4,3,2.9,4
2015/7/20 3:25,2.3,3,2.3,3,3.9,2
2015/7/20 3:26,2.3,3,2.3,3,3.5,3
2015/7/20 3:27,2.3,3,2.3,3,2.7,3
2015/7/20 3:28,2.4,3,2.4,3,3.8,3
2015/7/20 3:29,2.4,3,2.4,3,2.7,3
2015/7/20 3:30,2.4,3,2.4,3,2.9,3
2015/7/20 3:31,2.3,3,2.4,3,2.5,3
2015/7/20 3:32,2.2,3,2.3,3,3.1,3
2015/7/20 3:33,2.2,3,2.2,3,3.7,3
2015/7/20 3:34,2.2,3,2.2,3,3.2,4
2015/7/20 3:35,2.2,3,2.2,3,3.2,3
2015/7/20 3:36,2.1,3,2.2,3,3.5,3
2015/7/20 3:37,2.3,3,2.3,3,4.5,3
2015/7/20 3:38,2.3,3,2.3,3,3,3
2015/7/20 3:39,2.4,3,2.4,3,3.8,3
2015/7/20 3:40,2.4,3,2.4,3,3.2,4
2015/7/20 3:41,2.4,3,2.4,3,3,2
2015/7/20 3:42,2.4,3,2.4,3,3.9,2
2015/7/20 3:43,2.4,3,2.5,3,3.5,3
2015/7/20 3:44,2.4,3,2.4,3,2.7,2
2015/7/20 3:45,2.3,3,2.4,3,2.7,3
2015/7/20 3:46,2.4,3,2.4,3,3.1,5
2015/7/20 3:47,2.2,3,2.4,3,2.7,2
2015/7/20 3:48,2.2,3,2.2,3,2.7,3
2015/7/20 3:49,2.2,3,2.2,3,4.2,3
2015/7/20 3:50,2.2,3,2.2,3,4.1,3
2015/7/20 3:51,2.2,3,2.2,3,3.1,2
2015/7/20 3:52,2.2,3,2.2,3,3.3,5
2015/7/20 3:53,2.1,3,2.2,3,2.6,4
2015/7/20 3:54,2.1,3,2.1,3,3.1,3
2015/7/20 3:55,2.3,3,2.3,3,4.3,4
2015/7/20 3:56,2.2,3,2.3,3,3.3,3
2015/7/20 3:57,2.3,3,2.3,3,4.5,3
2015/7/20 3:58,2.5,3,2.5,3,5.4,3
2015/7/20 3:59,2.4,3,2.5,3,3.7,4
2015/7/20 4:00,2.4,3,2.4,3,4.4,3
2015/7/20 4:01,2.4,3,2.4,3,3.6,4
2015/7/20 4:02,2.5,3,2.5,3,3.5,3
2015/7/20 4:03,2.6,3,2.6,3,4.4,4
2015/7/20 4:04,2.7,3,2.7,3,4.3,5
2015/7/20 4:05,2.6,3,2.7,3,2.9,3
2015/7/20 4:06,2.5,3,2.6,3,2.9,3
2015/7/20 4:07,2.5,3,2.5,3,2.7,3
2015/7/20 4:08,2.3,3,2.4,3,3.2,3
2015/7/20 4:09,2.4,3,2.4,3,3.7,4
2015/7/20 4:10,2.4,3,2.5,3,4.5,3
2015/7/20 4:11,2.3,3,2.4,3,4.3,3
2015/7/20 4:12,2.3,3,2.3,3,3,4
2015/7/20 4:13,2.2,3,2.3,3,2.6,2
2015/7/20 4:14,2,3,2.1,3,2.6,3
2015/7/20 4:15,2,3,2,3,2.4,3
2015/7/20 4:16,2,3,2,3,2.5,4
2015/7/20 4:17,2,3,2,3,2.9,6
2015/7/20 4:18,2,3,2,3,3.6,4
2015/7/20 4:19,2.1,4,2.1,3,3.6,5
2015/7/20 4:20,2,4,2.1,3,3.9,4
2015/7/20 4:21,2.1,4,2.1,3,3.5,5
2015/7/20 4:22,2.2,4,2.2,3,4.3,5
2015/7/20 4:23,2.3,4,2.3,4,3.6,5
2015/7/20 4:24,2.3,4,2.4,4,3.7,3
2015/7/20 4:25,2.4,4,2.4,4,3.6,3
2015/7/20 4:26,2.5,4,2.5,4,3.7,5
2015/7/20 4:27,2.5,4,2.5,4,3,3
2015/7/20 4:28,2.5,4,2.5,4,3.1,5
2015/7/20 4:29,2.4,4,2.5,4,3,4
2015/7/20 4:30,2.3,4,2.4,4,2.5,4
2015/7/20 4:31,2.2,4,2.3,4,2.5,4
2015/7/20 4:32,2,4,2.2,4,2.4,7
2015/7/20 4:33,2,4,2,4,2.6,3
2015/7/20 4:34,1.9,4,2,4,3.3,5
2015/7/20 4:35,1.9,4,2,4,4.5,3
2015/7/20 4:36,2.1,4,2.1,4,4.4,3
2015/7/20 4:37,2.2,4,2.2,4,4.4,3
2015/7/20 4:38,2.2,4,2.2,4,4.4,2
2015/7/20 4:39,2.3,4,2.3,4,3.5,2
2015/7/20 4:40,2.2,4,2.3,4,3.5,4
2015/7/20 4:41,2.4,4,2.4,4,4.1,3
2015/7/20 4:42,2.5,4,2.5,4,3.9,4
2015/7/20 4:43,2.5,4,2.5,4,3.1,5
2015/7/20 4:44,2.6,4,2.6,4,4.2,5
2015/7/20 4:45,2.6,4,2.7,4,4.3,5
2015/7/20 4:46,2.6,4,2.6,4,4.3,4
2015/7/20 4:47,2.6,4,2.6,4,5,3
2015/7/20 4:48,2.6,4,2.6,4,4.7,4
2015/7/20 4:49,2.6,4,2.7,4,5.1,3
2015/7/20 4:50,2.7,4,2.7,4,2.9,1
2015/7/20 4:51,2.8,4,2.8,4,4.2,3
2015/7/20 4:52,2.7,4,2.8,4,3.5,3
2015/7/20 4:53,2.7,3,2.7,4,3.7,4
2015/7/20 4:54,2.7,3,2.7,4,3,3
2015/7/20 4:55,2.5,3,2.7,4,2.2,3
2015/7/20 4:56,2.4,3,2.5,4,2.5,3
2015/7/20 4:57,2.3,3,2.4,4,3.2,3
2015/7/20 4:58,2.2,3,2.3,4,3.7,3
2015/7/20 4:59,2.1,3,2.2,4,3.7,3
2015/7/20 5:00,2.1,3,2.1,4,3,3
2015/7/20 5:01,2,3,2.1,4,3,3
2015/7/20 5:02,2,3,2,4,2.5,4
2015/7/20 5:03,2,3,2,3,3.9,3
2015/7/20 5:04,2,3,2,3,3.8,3
2015/7/20 5:05,2.1,3,2.1,3,3.6,3
2015/7/20 5:06,2.2,3,2.2,3,3.2,5
2015/7/20 5:07,2.3,3,2.3,3,3.9,4
2015/7/20 5:08,2.3,3,2.3,3,3.2,2
2015/7/20 5:09,2.3,3,2.3,3,3.3,3
2015/7/20 5:10,2.3,3,2.3,3,3.2,2
2015/7/20 5:11,2.3,3,2.3,3,2.9,3
2015/7/20 5:12,2.3,3,2.3,3,3.3,4
2015/7/20 5:13,2.3,3,2.3,3,3,4
2015/7/20 5:14,2.2,3,2.3,3,3.7,2
2015/7/20 5:15,2.3,3,2.3,3,5.1,4
2015/7/20 5:16,2.4,3,2.4,3,4.8,4
2015/7/20 5:17,2.4,3,2.4,3,3.3,3
2015/7/20 5:18,2.3,3,2.3,3,2.9,3
2015/7/20 5:19,2.3,3,2.3,3,4.5,4
2015/7/20 5:20,2.3,3,2.3,3,4.7,3
2015/7/20 5:21,2.4,3,2.4,3,3.9,4
2015/7/20 5:22,2.5,3,2.5,3,3.9,4
2015/7/20 5:23,2.7,3,2.7,3,5.5,4
2015/7/20 5:24,2.8,3,2.8,3,5.1,3
2015/7/20 5:25,2.7,3,2.8,3,4.1,3
2015/7/20 5:26,2.7,3,2.7,3,4.9,2
2015/7/20 5:27,2.8,3,2.8,3,5.8,2
2015/7/20 5:28,2.9,3,2.9,3,5.5,5
2015/7/20 5:29,3,3,3.1,3,5.2,5
2015/7/20 5:30,3.1,3,3.1,3,3.9,3
2015/7/20 5:31,3.1,3,3.1,3,4.1,1
2015/7/20 5:32,3.3,3,3.3,3,6.8,4
2015/7/20 5:33,3.3,3,3.3,3,6.4,3
2015/7/20 5:34,3.3,3,3.3,3,4.7,3
2015/7/20 5:35,3.3,3,3.4,3,5.1,4
2015/7/20 5:36,3.2,3,3.3,3,3.3,4
2015/7/20 5:37,3.1,3,3.2,3,3.5,4
2015/7/20 5:38,3,3,3.1,3,3.7,4
2015/7/20 5:39,3,3,3,3,4.2,4
2015/7/20 5:40,3,3,3,3,3.9,4
2015/7/20 5:41,3.1,3,3.1,3,4.7,4
2015/7/20 5:42,2.9,3,3,3,3.9,3
2015/7/20 5:43,2.8,3,2.9,3,3.8,3
2015/7/20 5:44,2.7,3,2.7,3,3.5,3
2015/7/20 5:45,2.7,3,2.7,3,4.5,3
2015/7/20 5:46,2.9,3,2.9,3,5.2,3
2015/7/20 5:47,2.9,3,2.9,3,4.5,3
2015/7/20 5:48,2.9,3,3,3,3.9,3
2015/7/20 5:49,2.9,3,3,3,5.2,6
2015/7/20 5:50,2.9,3,3,3,3.5,3
2015/7/20 5:51,2.8,3,2.9,3,3,3
2015/7/20 5:52,2.7,3,2.7,3,3.2,2
2015/7/20 5:53,2.6,3,2.7,3,3.2,4
2015/7/20 5:54,2.5,3,2.6,3,2.5,3
2015/7/20 5:55,2.5,3,2.5,3,4.1,3
2015/7/20 5:56,2.3,3,2.5,3,2.4,4
2015/7/20 5:57,2.2,3,2.3,3,1.6,2
2015/7/20 5:58,2.1,3,2.1,3,3,3
2015/7/20 5:59,1.9,3,2,3,3,2
2015/7/20 6:00,1.9,3,1.9,3,3.7,4
2015/7/20 6:01,2.1,3,2.1,3,4.4,2
2015/7/20 6:02,2.1,3,2.1,3,4.1,3
2015/7/20 6:03,2.1,3,2.1,3,3.5,5
2015/7/20 6:04,2.1,3,2.1,3,3.7,4
2015/7/20 6:05,2.2,3,2.2,3,4.3,3
2015/7/20 6:06,2.3,3,2.3,3,5.2,4
2015/7/20 6:07,2.5,4,2.5,4,3.9,4
2015/7/20 6:08,2.5,4,2.5,4,3.7,2
2015/7/20 6:09,2.6,3,2.6,4,4.2,4
2015/7/20 6:10,2.6,3,2.6,4,3.3,3
2015/7/20 6:11,2.4,3,2.6,4,2.5,3
2015/7/20 6:12,2.4,3,2.4,4,3,3
2015/7/20 6:13,2.3,3,2.4,4,2.6,3
2015/7/20 6:14,2.3,3,2.3,4,2.5,2
2015/7/20 6:15,2.2,3,2.2,4,4.2,3
2015/7/20 6:16,2.2,3,2.3,4,4.4,3
2015/7/20 6:17,2.2,3,2.2,4,3,3
2015/7/20 6:18,2.3,3,2.3,4,3.9,3
2015/7/20 6:19,2.2,3,2.2,3,4.7,3
2015/7/20 6:20,2.2,3,2.2,3,4.3,3
2015/7/20 6:21,2.5,3,2.5,3,5.1,3
2015/7/20 6:22,2.7,3,2.7,3,6,3
2015/7/20 6:23,2.8,3,2.8,3,5.4,3
2015/7/20 6:24,2.9,3,2.9,3,5.6,3
2015/7/20 6:25,2.9,3,3,3,4.8,3
2015/7/20 6:26,2.9,3,3,3,5,3
2015/7/20 6:27,3.1,3,3.1,3,5.4,3
2015/7/20 6:28,3.1,3,3.1,3,5,2
2015/7/20 6:29,3.2,2,3.2,3,5.5,2
2015/7/20 6:30,3.3,2,3.3,2,5.8,3
2015/7/20 6:31,3.2,2,3.3,2,4.7,3
2015/7/20 6:32,3.1,2,3.2,2,5.5,3
2015/7/20 6:33,3.2,2,3.2,2,7.4,3
2015/7/20 6:34,3.3,2,3.3,2,6.4,3
2015/7/20 6:35,3.4,3,3.4,3,5.4,4
2015/7/20 6:36,3.4,3,3.5,3,5.4,3
2015/7/20 6:37,3.3,3,3.4,3,3.6,3
2015/7/20 6:38,3.2,3,3.3,3,3.9,3
2015/7/20 6:39,3.3,3,3.3,3,6,3
2015/7/20 6:40,3.2,3,3.3,3,4.2,4
2015/7/20 6:41,3.3,3,3.3,3,3.7,3
2015/7/20 6:42,3.3,3,3.3,3,4.7,3
2015/7/20 6:43,3.2,3,3.3,3,4.3,2
2015/7/20 6:44,3,3,3.1,3,3.9,3
2015/7/20 6:45,2.9,3,3,3,5.2,6
2015/7/20 6:46,2.9,3,3,3,4.2,2
2015/7/20 6:47,2.9,3,2.9,3,3.9,3
2015/7/20 6:48,2.9,3,3,3,4.5,4
2015/7/20 6:49,2.8,3,3,3,3.6,3
2015/7/20 6:50,2.8,4,2.8,3,4.3,6
2015/7/20 6:51,2.7,4,2.8,3,3.5,2
2015/7/20 6:52,2.6,4,2.7,3,3.5,4
2015/7/20 6:53,2.5,4,2.6,3,3.1,2
2015/7/20 6:54,2.5,4,2.5,3,3.9,3
2015/7/20 6:55,2.4,4,2.5,3,3.5,3
2015/7/20 6:56,2.3,3,2.4,3,1.9,3
2015/7/20 6:57,2.2,3,2.2,3,5.5,5
2015/7/20 6:58,2.4,4,2.4,3,5.2,5
2015/7/20 6:59,2.4,4,2.4,3,4.9,3
2015/7/20 7:00,2.5,3,2.5,4,4.7,5
2015/7/20 7:01,2.5,4,2.6,4,3.8,5
2015/7/20 7:02,2.6,4,2.6,4,3.8,4
2015/7/20 7:03,2.7,4,2.7,4,4.5,4
2015/7/20 7:04,2.7,4,2.7,4,4.4,4
2015/7/20 7:05,2.8,4,2.8,4,5,5
2015/7/20 7:06,3,4,3,4,3.9,3
2015/7/20 7:07,3,4,3.1,4,3.6,3
2015/7/20 7:08,3,4,3,4,5,4
2015/7/20 7:09,3,4,3.1,4,4.7,4
2015/7/20 7:10,3,4,3.1,4,5,4
2015/7/20 7:11,3,4,3,4,3.9,3
2015/7/20 7:12,3,4,3.1,4,4.5,3
2015/7/20 7:13,3,4,3,4,3.2,3
2015/7/20 7:14,2.9,4,2.9,4,3.2,5
2015/7/20 7:15,2.8,4,2.8,4,3.6,6
2015/7/20 7:16,2.8,4,2.8,4,4.1,5
2015/7/20 7:17,2.8,4,2.8,4,4.1,4
2015/7/20 7:18,2.7,4,2.8,4,4.4,4
2015/7/20 7:19,2.6,4,2.7,4,3.3,3
2015/7/20 7:20,2.4,4,2.6,4,3.2,3
2015/7/20 7:21,2.3,4,2.4,4,2.4,3
2015/7/20 7:22,2.4,4,2.4,4,5.5,3
2015/7/20 7:23,2.6,4,2.6,4,5.7,4
2015/7/20 7:24,2.8,4,2.8,4,6,4
2015/7/20 7:25,2.9,4,2.9,4,5.4,4
2015/7/20 7:26,3,4,3,4,6,5
2015/7/20 7:27,3,4,3,4,4.3,5
2015/7/20 7:28,3,4,3.1,4,4.1,5
2015/7/20 7:29,3,4,3.1,4,4.4,4
2015/7/20 7:30,3.2,4,3.2,4,4.7,3
2015/7/20 7:31,3.4,4,3.4,4,4.5,4
2015/7/20 7:32,3.3,4,3.4,4,4.2,4
2015/7/20 7:33,3.2,4,3.3,4,4.2,3
2015/7/20 7:34,3.2,4,3.2,4,5.8,3
2015/7/20 7:35,3.1,4,3.2,4,5,4
2015/7/20 7:36,3,4,3.1,4,4.7,5
2015/7/20 7:37,3,4,3,4,4.9,4
2015/7/20 7:38,3.1,4,3.1,4,5,3
2015/7/20 7:39,3.1,4,3.1,4,5.5,3
2015/7/20 7:40,3.1,4,3.1,4,4.9,6
2015/7/20 7:41,3.1,4,3.1,4,4.7,5
2015/7/20 7:42,3.2,4,3.2,4,6,3
2015/7/20 7:43,3.3,4,3.3,4,6.2,5
2015/7/20 7:44,3.4,4,3.4,4,5.6,4
2015/7/20 7:45,3.4,4,3.4,4,5.5,4
2015/7/20 7:46,3.5,4,3.5,4,5.8,4
2015/7/20 7:47,3.5,4,3.6,4,6.5,5
2015/7/20 7:48,3.5,4,3.6,4,4.2,4
2015/7/20 7:49,3.5,4,3.5,4,4.2,5
2015/7/20 7:50,3.5,4,3.5,4,4.8,3
2015/7/20 7:51,3.4,4,3.5,4,3.9,3
2015/7/20 7:52,3.3,4,3.4,4,5.1,4
2015/7/20 7:53,3.1,4,3.3,4,3.9,5
2015/7/20 7:54,3,4,3.1,4,4.3,5
2015/7/20 7:55,2.9,4,3,4,5,5
2015/7/20 7:56,2.9,4,2.9,4,4.7,5
2015/7/20 7:57,2.8,4,2.8,4,3.9,5
2015/7/20 7:58,2.8,4,2.8,4,4.4,4
2015/7/20 7:59,2.6,4,2.7,4,2.2,6
2015/7/20 8:00,2.6,5,2.6,4,4.2,3
2015/7/20 8:01,2.6,5,2.6,4,4.2,3
2015/7/20 8:02,2.6,5,2.6,4,4.7,4
2015/7/20 8:03,2.7,5,2.7,4,5.2,4
2015/7/20 8:04,2.8,4,2.8,4,4.8,4
2015/7/20 8:05,2.6,4,2.8,4,3.1,4
2015/7/20 8:06,2.6,4,2.6,4,3.5,3
2015/7/20 8:07,2.5,4,2.6,4,3.8,3
2015/7/20 8:08,2.5,4,2.5,4,3.6,6
2015/7/20 8:09,2.7,4,2.7,4,4.1,5
2015/7/20 8:10,2.6,4,2.7,4,3.9,4
2015/7/20 8:11,2.6,4,2.6,4,4.7,4
2015/7/20 8:12,2.6,4,2.6,4,5.1,4
2015/7/20 8:13,2.6,4,2.6,4,5.1,6
2015/7/20 8:14,2.6,5,2.6,5,4.1,5
2015/7/20 8:15,2.7,5,2.7,4,4.4,5
2015/7/20 8:16,2.8,5,2.8,5,4.9,5
2015/7/20 8:17,2.9,5,2.9,5,5.2,5
2015/7/20 8:18,3,5,3,5,4.7,4
2015/7/20 8:19,2.9,4,3,5,3.6,4
2015/7/20 8:20,3,5,3,5,4.9,5
2015/7/20 8:21,3,5,3.1,5,4.2,4
2015/7/20 8:22,3,5,3,5,4.7,5
2015/7/20 8:23,2.9,5,3,5,3.9,4
2015/7/20 8:24,2.9,4,2.9,5,3.8,3
2015/7/20 8:25,2.9,4,2.9,5,3.7,3
2015/7/20 8:26,2.9,4,2.9,5,5.1,5
2015/7/20 8:27,2.8,4,2.9,5,5.4,5
2015/7/20 8:28,2.9,4,2.9,5,5.5,5
2015/7/20 8:29,3,5,3,5,4.8,5
2015/7/20 8:30,2.9,4,3,5,4.1,4
2015/7/20 8:31,2.9,5,2.9,5,3.8,6
2015/7/20 8:32,2.8,5,2.9,5,2.7,2
2015/7/20 8:33,2.7,5,2.8,4,4.3,6
2015/7/20 8:34,2.7,5,2.7,4,3.3,4
2015/7/20 8:35,2.7,5,2.7,4,3.8,3
2015/7/20 8:36,2.7,5,2.7,4,5.5,3
2015/7/20 8:37,2.7,4,2.7,4,4.8,3
2015/7/20 8:38,2.7,4,2.8,4,6.1,4
2015/7/20 8:39,2.7,4,2.7,5,5.2,5
2015/7/20 8:40,2.9,4,2.9,4,5.8,4
2015/7/20 8:41,3.1,4,3.1,4,5.7,3
2015/7/20 8:42,3.3,4,3.3,4,5.5,3
2015/7/20 8:43,3.5,4,3.5,4,5.4,2
2015/7/20 8:44,3.7,4,3.7,4,4.7,3
2015/7/20 8:45,3.7,4,3.7,4,3.7,3
2015/7/20 8:46,3.5,4,3.7,4,3.5,4
2015/7/20 8:47,3.6,4,3.6,4,5.5,3
2015/7/20 8:48,3.6,4,3.6,4,6.9,2
2015/7/20 8:49,3.7,4,3.7,4,6,5
2015/7/20 8:50,3.6,4,3.7,4,4.7,6
2015/7/20 8:51,3.6,4,3.7,4,4.7,4
2015/7/20 8:52,3.4,4,3.6,4,4.4,5
2015/7/20 8:53,3.3,4,3.4,4,5.1,4
2015/7/20 8:54,3.1,4,3.3,4,3.9,4
2015/7/20 8:55,3.3,4,3.3,4,4.8,3
2015/7/20 8:56,3.3,4,3.3,4,3.9,4
2015/7/20 8:57,3.4,4,3.4,4,6.8,5
2015/7/20 8:58,3.3,4,3.4,4,5,5
2015/7/20 8:59,3.2,4,3.3,4,4.7,5
2015/7/20 9:00,3.3,4,3.3,4,5.1,5
2015/7/20 9:01,3.2,4,3.3,4,4.2,5
2015/7/20 9:02,3.2,5,3.2,4,4.1,5
2015/7/20 9:03,3.2,5,3.2,4,4.2,5
2015/7/20 9:04,3.2,5,3.2,4,4.7,5
2015/7/20 9:05,3.2,5,3.2,4,4.9,4
2015/7/20 9:06,3.3,5,3.3,4,5.6,7
2015/7/20 9:07,3.1,5,3.3,4,4.5,4
2015/7/20 9:08,3.1,5,3.1,4,5.6,4
2015/7/20 9:09,3.2,5,3.3,4,7.2,4
2015/7/20 9:10,3.2,5,3.3,4,5.4,6
2015/7/20 9:11,3.4,5,3.4,5,5.5,6
2015/7/20 9:12,3.6,5,3.6,5,6.3,5
2015/7/20 9:13,3.8,5,3.8,5,6.5,5
2015/7/20 9:14,3.7,5,3.8,5,4.9,6
2015/7/20 9:15,3.5,5,3.6,5,4.3,5
2015/7/20 9:16,3.6,5,3.6,5,5.6,3
2015/7/20 9:17,3.7,5,3.7,5,7.1,5
2015/7/20 9:18,3.9,5,3.9,5,7.1,5
2015/7/20 9:19,3.8,5,3.9,5,5.1,4
2015/7/20 9:20,3.9,5,3.9,5,6.5,4
2015/7/20 9:21,3.9,5,3.9,5,6.4,5
2015/7/20 9:22,3.9,5,3.9,5,6.9,4
2015/7/20 9:23,3.7,5,3.9,5,4.1,7
2015/7/20 9:24,3.9,5,3.9,5,5.5,6
2015/7/20 9:25,3.9,5,3.9,5,5.7,7
2015/7/20 9:26,3.9,5,3.9,5,6.5,6
2015/7/20 9:27,3.7,5,3.9,5,5.4,5
2015/7/20 9:28,3.6,5,3.7,5,5,5
2015/7/20 9:29,3.5,5,3.6,5,4.5,6
2015/7/20 9:30,3.3,5,3.5,5,4.5,7
2015/7/20 9:31,3.3,5,3.3,5,5.2,5
2015/7/20 9:32,2.9,6,3.2,5,4.7,5
2015/7/20 9:33,2.9,6,2.9,5,3.5,5
2015/7/20 9:34,2.8,6,2.9,5,4.7,6
2015/7/20 9:35,2.9,6,2.9,5,4.7,6
2015/7/20 9:36,2.9,6,2.9,5,6.2,5
2015/7/20 9:37,2.9,6,2.9,5,6,4
2015/7/20 9:38,3,6,3,5,7.4,5
2015/7/20 9:39,3.2,5,3.2,5,6.9,4
2015/7/20 9:40,3.3,5,3.3,5,7.1,4
2015/7/20 9:41,3.4,5,3.4,5,6.2,4
2015/7/20 9:42,3.6,5,3.6,5,5.6,5
2015/7/20 9:43,3.9,5,3.9,5,7.5,4
2015/7/20 9:44,4,5,4,5,6.3,3
2015/7/20 9:45,4.1,5,4.1,5,6,3
2015/7/20 9:46,4.1,5,4.2,5,7.2,5
2015/7/20 9:47,4.4,5,4.4,5,7.6,5
2015/7/20 9:48,4.4,5,4.4,5,5.8,6
2015/7/20 9:49,4.3,4,4.4,5,6.5,4
2015/7/20 9:50,4.1,5,4.3,5,4.8,4
2015/7/20 9:51,3.8,5,4.1,5,3.7,9
2015/7/20 9:52,3.7,5,3.8,5,3.9,7
2015/7/20 9:53,3.4,5,3.7,5,4.3,7
2015/7/20 9:54,3.3,5,3.4,5,6,5
2015/7/20 9:55,3.4,6,3.5,5,7.5,7
2015/7/20 9:56,3.2,6,3.4,5,5.2,8
2015/7/20 9:57,3.1,6,3.2,5,6.2,6
2015/7/20 9:58,3.1,6,3.2,5,7.1,6
2015/7/20 9:59,3,7,3.1,4,4.3,6
2015/7/20 10:00,3.1,7,3.1,5,6,5
2015/7/20 10:01,3.1,7,3.1,5,3.7,9
2015/7/20 10:02,3.2,6,3.2,5,5.8,7
2015/7/20 10:03,3.2,6,3.2,6,5,8
2015/7/20 10:04,3.4,6,3.4,6,6.2,6
2015/7/20 10:05,3.4,6,3.4,6,7.1,6
2015/7/20 10:06,3.5,6,3.5,6,6.7,6
2015/7/20 10:07,3.6,6,3.6,6,5.6,7
2015/7/20 10:08,3.3,6,3.5,6,4.5,5
2015/7/20 10:09,3.4,6,3.4,6,5.6,6
2015/7/20 10:10,3.6,6,3.6,6,7.4,6
2015/7/20 10:11,4,6,4,6,7.5,6
2015/7/20 10:12,4.2,6,4.2,6,8.4,5
2015/7/20 10:13,4.3,6,4.3,6,6.3,7
2015/7/20 10:14,4.2,6,4.3,6,5,6
2015/7/20 10:15,4.2,6,4.2,6,7.1,6
2015/7/20 10:16,4.1,6,4.1,6,4.8,6
2015/7/20 10:17,3.9,6,4.1,6,5.2,4
2015/7/20 10:18,4.1,6,4.1,6,5.1,6
2015/7/20 10:19,4,6,4.1,6,6.5,8
2015/7/20 10:20,3.9,6,4.1,6,6.1,5
2015/7/20 10:21,3.7,6,3.9,6,5.7,6
2015/7/20 10:22,3.5,6,3.7,6,6.9,8
2015/7/20 10:23,3.5,6,3.5,6,7.4,6
2015/7/20 10:24,3.6,6,3.6,6,6.8,7
2015/7/20 10:25,3.7,6,3.7,6,7.2,6
2015/7/20 10:26,3.7,6,3.7,6,6.7,6
2015/7/20 10:27,3.9,6,3.9,6,6,6
2015/7/20 10:28,3.9,6,3.9,6,6.2,5
2015/7/20 10:29,3.9,6,3.9,6,5.7,4
2015/7/20 10:30,4.1,5,4.1,6,8.4,4
2015/7/20 10:31,4.2,5,4.2,5,7.9,3
2015/7/20 10:32,4.4,5,4.4,5,7.8,5
2015/7/20 10:33,4.4,5,4.5,5,6.2,2
2015/7/20 10:34,4.4,5,4.4,5,6.8,4
2015/7/20 10:35,4.1,5,4.4,5,3.8,4
2015/7/20 10:36,3.9,5,4.1,5,3.7,4
2015/7/20 10:37,3.8,5,3.9,5,5.7,6
2015/7/20 10:38,3.7,5,3.8,5,6.4,6
2015/7/20 10:39,3.7,5,3.7,5,4.2,5
2015/7/20 10:40,3.4,5,3.6,5,6.3,6
2015/7/20 10:41,3.2,5,3.4,5,6.3,7
2015/7/20 10:42,3,5,3.2,5,3.9,8
2015/7/20 10:43,3,6,3,5,6.8,6
2015/7/20 10:44,3,6,3,5,4.8,6
2015/7/20 10:45,3.1,6,3.1,5,5.1,6
2015/7/20 10:46,3.2,6,3.2,5,4.8,6
2015/7/20 10:47,3.2,6,3.2,5,5.4,6
2015/7/20 10:48,3.3,6,3.3,5,6.7,7
2015/7/20 10:49,3.3,6,3.3,5,6.7,8
2015/7/20 10:50,3.3,6,3.4,5,4.7,8
2015/7/20 10:51,3.2,6,3.3,6,4.8,8
2015/7/20 10:52,3.1,6,3.2,6,4.3,7
2015/7/20 10:53,3,7,3.1,6,5,8
2015/7/20 10:54,2.9,7,3,6,5.6,7
2015/7/20 10:55,2.9,7,2.9,6,4.8,7
2015/7/20 10:56,2.8,7,2.9,6,5,8
2015/7/20 10:57,2.8,7,2.8,6,5.1,7
2015/7/20 10:58,2.8,7,2.9,6,6.4,7
2015/7/20 10:59,2.9,7,2.9,6,6.9,8
2015/7/20 11:00,3,7,3.1,6,6.1,8
2015/7/20 11:01,3,7,3.1,6,4.8,8
2015/7/20 11:02,3,7,3.1,7,3.2,6
2015/7/20 11:03,3,7,3,7,3.2,6
2015/7/20 11:04,2.9,8,3,7,4.9,8
2015/7/20 11:05,2.9,8,2.9,7,5.5,8
2015/7/20 11:06,3.1,8,3.1,7,7.7,7
2015/7/20 11:07,3,7,3.1,7,4.3,6
2015/7/20 11:08,2.8,8,3,7,4.2,8
2015/7/20 11:09,2.6,7,2.8,7,4.4,9
2015/7/20 11:10,2.7,7,2.7,7,8.7,8
2015/7/20 11:11,2.9,7,2.9,7,8.6,8
2015/7/20 11:12,3.1,7,3.1,8,6.1,7
2015/7/20 11:13,3.1,8,3.1,8,4.5,7
2015/7/20 11:14,3.1,7,3.1,8,5.1,7
2015/7/20 11:15,3.3,7,3.3,7,7.6,8
2015/7/20 11:16,3.3,7,3.3,7,6.9,7
2015/7/20 11:17,3.6,7,3.6,7,6.9,7
2015/7/20 11:18,4,8,4,7,9.3,8
2015/7/20 11:19,4.2,8,4.2,8,8.6,8
2015/7/20 11:20,4.1,8,4.3,8,7.1,8
2015/7/20 11:21,4.2,7,4.2,8,7,7
2015/7/20 11:22,4.2,8,4.3,8,6.7,7
2015/7/20 11:23,4.3,8,4.3,8,4.9,7
2015/7/20 11:24,4.3,8,4.3,8,4.5,8
2015/7/20 11:25,4.3,8,4.4,8,7.8,8
2015/7/20 11:26,4.3,8,4.3,8,6.1,8
2015/7/20 11:27,4.1,8,4.3,8,5.2,7
2015/7/20 11:28,3.8,8,4,8,6.4,8
2015/7/20 11:29,3.8,8,3.8,8,7.1,8
2015/7/20 11:30,3.7,8,3.8,8,6.5,6
2015/7/20 11:31,3.5,8,3.7,8,5.6,8
2015/7/20 11:32,3.4,8,3.4,8,6.1,7
2015/7/20 11:33,3.3,7,3.4,8,5.4,6
2015/7/20 11:34,3.4,7,3.5,8,6.4,7
2015/7/20 11:35,3.2,7,3.4,8,4.7,8
2015/7/20 11:36,3,7,3.2,8,4.7,8
2015/7/20 11:37,2.9,7,3,8,3.9,4
2015/7/20 11:38,2.8,6,2.9,8,4.4,3
2015/7/20 11:39,2.7,6,2.8,8,4.9,5
2015/7/20 11:40,2.7,6,2.7,8,5.1,6
2015/7/20 11:41,2.8,6,2.8,7,5.1,7
2015/7/20 11:42,2.7,6,2.9,7,4.3,6
2015/7/20 11:43,2.8,6,2.8,7,4.5,6
2015/7/20 11:44,2.8,6,2.8,7,6.1,6
2015/7/20 11:45,3,6,3,7,5.6,6
2015/7/20 11:46,3.1,6,3.1,6,5.7,5
2015/7/20 11:47,3.3,6,3.3,6,3.9,5
2015/7/20 11:48,3.4,6,3.4,6,4.9,5
2015/7/20 11:49,3.3,6,3.4,6,3.9,6